Tracking 29018 objects as of 15-Jun-2024
HD Live streaming from Space Station
objects crossing your sky now

STARLINK-3445

Track STARLINK-3445 now!
10-day predictions
STARLINK-3445 is classified as:


NORAD ID: 51717
Int'l Code: 2022-016D
Perigee: 546.0 km
Apogee: 547.8 km
Inclination: 53.2 °
Period: 95.4 minutes
Semi major axis: 6917 km
RCS: Unknown
Launch date: February 21, 2022
Source: United States (US)
Launch site: AIR FORCE EASTERN TEST RANGE (AFETR)
Your satellite tracking list
Your tracking list is empty




NASA's NSSDC Master Catalog

Two Line Element Set (TLE):
1 51717U 22016D   24166.75773520  .00000465  00000-0  47280-4 0  9997
2 51717  53.2186 290.5519 0001286  90.6720 269.4419 15.08835360127879
Source of the keplerian elements: AFSPC